Regional Weather Roundup
Issued by NWS

Home | Current Version | Previous Version | Text Only | Print | Product List | Glossary Off
Versions: 1 2 3 4 5 6 7 8 9 10 11 12 13 14 15 16 17 18 19 20 21 22 23 24 25 26 27 28 29 30 31 32 33 34 35 36 37 38 39 40 41 42 43 44 45 46 47 48 49 50

000
ASUS45 KCYS 050710
RWRWY

WYOMING REGIONAL WEATHER ROUNDUP
NATIONAL WEATHER SERVICE CHEYENNE WY
100 AM MDT THU MAY 05 2016

NOTE:  "FAIR" INDICATES FEW OR NO CLOUDS BELOW 12,000 FEET
WITH NO SIGNIFICANT WEATHER AND/OR OBSTRUCTIONS TO VISIBILITY.

WYZ001-050800-
YELLOWSTONE NATIONAL PARK

CITY           SKY/WX    TMP DP  RH WIND       PRES   REMARKS
LK YELLOWSTONE   N/A     35  29  78 CALM      30.20F
W YELLOWSTONE  NOT AVBL

$$
WYZ002>013-054>058-071-098>099-050800-
NORTHERN WYOMING

CITY           SKY/WX    TMP DP  RH WIND       PRES   REMARKS
JACKSON        FAIR      46  30  53 N5        30.14R
CODY           FAIR      59  28  31 SW9       30.01S
GREYBULL       FAIR      62  29  28 SE5       29.94S
WORLAND        FAIR      52  39  61 N6        29.96S
SHERIDAN       FAIR      50  37  61 CALM      29.96S
BUFFALO        FAIR      60  27  28 SW8       30.02S
GILLETTE       FAIR      54  42  64 S16       29.99F
HULETT         FAIR      61  37  41 CALM      30.02S
NEWCASTLE      FAIR      61  34  36 SE13      30.06S

$$
WYZ014>020-022>026-101>103-050800-
CENTRAL WYOMING

CITY           SKY/WX    TMP DP  RH WIND       PRES   REMARKS
BIG PINEY      FAIR      42  30  62 NE6       30.17R
PINEDALE       FAIR      43  32  65 CALM      30.18S
DUBOIS         FAIR      45  21  39 W13       30.16R
LANDER         FAIR      64  26  23 SW20      30.03S
RIVERTON       FAIR      57  29  34 SW10      30.05S
CASPER         FAIR      48  34  58 W7        30.07S
DOUGLAS        FAIR      50  41  71 SE7       30.07F

$$
WYZ021-027>030-104>119-050800-
SOUTHERN WYOMING

CITY           SKY/WX    TMP DP  RH WIND       PRES   REMARKS
EVANSTON       FAIR      56  25  30 SE3       30.16S
KEMMERER         N/A     46  30  53 N6        30.18S
FORT BRIDGER   SUNNY     55  27  33 W5        30.19R
ROCK SPRINGS   FAIR      52  27  38 SW8       30.16S
DIXON          FAIR      44  31  59 E3        30.22R
RAWLINS        FAIR      43  29  57 CALM      30.17S
SARATOGA       FAIR      41  28  60 SE8       30.21S
LARAMIE        FAIR      41  34  76 S8        30.22R
CHEYENNE       FAIR      51  35  54 S7        30.18S
TORRINGTON     FAIR      51  42  71 SE6       30.08S
PINE BLUFFS    FAIR      48  37  66 SW8       30.15S

$$



USA.gov is the U.S. government's official web portal to all federal, state and local government web resources and services.